EW9963 Weather Reports


time (UTC)temp
C
wind
direction
speed
KPH
gust
KPH
rain 1hr
cm
rain 24hr
cm
rain mn
cm
humidity
%
barometer
mb
20260509021544 16 0 0.0 1.6 0.00 0.00 0.00 78 1015.4
20260509020047 16 0 0.0 4.8 0.00 0.00 0.00 78 1015.3
20260509014542 16 0 0.0 3.2 0.00 0.00 0.00 80 1015.3
20260509013048 16 0 0.0 1.6 0.00 0.00 0.00 79 1015.0
20260509011540 17 0 0.0 0.0 0.00 0.00 0.00 76 1014.8
20260509010042 17 0 0.0 0.0 0.00 0.00 0.00 74 1014.9
20260509004607 17 0 0.0 0.0 0.00 0.00 0.00 73 1014.8
20260509003046 18 0 0.0 0.0 0.00 0.00 0.00 70 1014.6
20260509001542 18 0 0.0 0.0 0.00 0.00 0.00 67 1014.5
20260509000041 19 0 0.0 0.0 0.00 0.00 0.00 66 1014.5
20260508234539 20 0 0.0 0.0 0.00 0.00 0.00 62 1014.3
20260508233051 20 0 0.0 1.6 0.00 0.00 0.00 58 1014.1
20260508231541 20 0 0.0 0.0 0.00 0.00 0.00 60 1014.2
20260508230053 21 0 0.0 0.0 0.00 0.00 0.00 55 1014.1
20260508224541 21 0 0.0 1.6 0.00 0.00 0.00 54 1014.2
20260508223040 21 0 0.0 3.2 0.00 0.00 0.00 52 1014.5
20260508221546 21 0 0.0 6.4 0.00 0.00 0.00 50 1014.4
20260508220050 21 0 0.0 3.2 0.00 0.00 0.00 49 1014.3
20260508214547 22 0 1.6 4.8 0.00 0.00 0.00 48 1014.3
20260508213040 22 0 0.0 4.8 0.00 0.00 0.00 45 1014.2
20260508211543 21 128 1.6 6.4 0.00 0.00 0.00 47 1014.2
20260508210057 21 0 1.6 6.4 0.00 0.00 0.00 44 1014.4
20260508204539 22 5 0.0 6.4 0.00 0.00 0.00 43 1014.5
20260508203040 22 167 1.6 6.4 0.00 0.00 0.00 43 1014.5
20260508201544 22 329 0.0 6.4 0.00 0.00 0.00 43 1014.6
20260508200047 22 346 1.6 6.4 0.00 0.00 0.00 42 1014.7
20260508194546 22 360 3.2 8.0 0.00 0.00 0.00 43 1014.7
20260508193045 22 0 0.0 6.4 0.00 0.00 0.00 42 1015.3
20260508191546 21 98 0.0 6.4 0.00 0.00 0.00 44 1015.6
20260508190053 21 57 3.2 6.4 0.00 0.00 0.00 43 1015.6
20260508184556 21 32 3.2 12.9 0.00 0.00 0.00 44 1016.0
20260508183040 21 12 3.2 12.9 0.00 0.00 0.00 43 1016.2
20260508181558 20 307 1.6 9.7 0.00 0.00 0.00 48 1016.3
20260508180046 20 5 1.6 9.7 0.00 0.00 0.00 46 1016.2
20260508174546 20 355 3.2 14.5 0.00 0.10 0.00 45 1016.5
20260508173046 20 0 6.4 19.3 0.00 0.10 0.00 47 1016.6
20260508171541 20 11 3.2 8.0 0.00 0.10 0.00 47 1016.8
20260508170045 20 26 3.2 12.9 0.00 0.10 0.00 50 1016.8
20260508164558 20 348 9.7 17.7 0.00 0.56 0.00 49 1017.0
20260508163039 20 355 8.0 17.7 0.00 0.56 0.00 49 1017.5
20260508161548 19 23 4.8 11.3 0.00 0.56 0.00 54 1017.4
20260508160043 19 343 1.6 12.9 0.00 0.56 0.00 56 1017.6
20260508154543 18 342 6.4 14.5 0.00 0.91 0.00 54 1017.9
20260508153041 18 5 8.0 16.1 0.00 0.91 0.00 54 1017.9
20260508151541 18 337 8.0 16.1 0.00 0.91 0.00 55 1017.8
20260508150040 18 23 4.8 17.7 0.00 0.91 0.00 57 1018.0
20260508144604 18 38 6.4 14.5 0.00 0.91 0.00 57 1018.0
20260508143040 18 265 6.4 16.1 0.00 0.91 0.00 59 1017.7
20260508141551 18 318 4.8 12.9 0.00 0.91 0.00 62 1017.7
20260508140048 17 345 6.4 17.7 0.00 0.91 0.00 63 1017.8
20260508134544 17 360 6.4 19.3 0.00 0.91 0.00 64 1017.9
20260508133110 17 346 8.0 17.7 0.00 0.91 0.00 64 1017.7
20260508131548 16 332 6.4 19.3 0.00 0.91 0.00 68 1017.5
20260508130045 16 344 3.2 14.5 0.00 0.91 0.00 72 1017.2
20260508124540 15 5 6.4 17.7 0.00 0.91 0.00 74 1017.3
20260508123057 15 34 3.2 14.5 0.00 0.91 0.00 76 1017.2
20260508121540 15 355 4.8 9.7 0.00 0.91 0.00 82 1017.1
20260508120047 14 11 3.2 8.0 0.00 0.91 0.00 86 1016.9
20260508114546 13 351 1.6 6.4 0.00 1.17 0.00 88 1016.5
20260508113059 13 360 1.6 3.2 0.00 1.17 0.00 90 1016.2
20260508111544 12 0 0.0 1.6 0.00 1.17 0.00 91 1016.1
20260508110050 11 0 0.0 1.6 0.00 1.17 0.00 90 1015.7
20260508104544 11 0 0.0 0.0 0.00 1.22 0.00 89 1015.4
20260508103047 12 0 0.0 0.0 0.00 1.22 0.00 89 1015.1
20260508101544 12 0 0.0 0.0 0.00 1.22 0.00 89 1015.0
20260508100043 12 0 0.0 0.0 0.00 1.22 0.00 89 1014.8
20260508094541 12 0 0.0 0.0 0.00 1.32 0.00 89 1014.8
20260508093041 12 0 0.0 3.2 0.00 1.32 0.00 89 1014.6
20260508091558 13 0 0.0 4.8 0.00 1.32 0.00 89 1014.8
20260508090104 13 351 0.0 3.2 0.00 1.32 0.00 89 1014.6
20260508084539 13 0 0.0 1.6 0.00 1.32 0.00 89 1014.6
20260508083043 12 0 0.0 0.0 0.00 1.32 0.00 88 1014.4
20260508081541 13 0 0.0 1.6 0.00 1.32 0.00 88 1014.3
20260508080040 13 0 0.0 0.0 0.00 1.32 0.00 87 1014.2
20260508074544 13 0 0.0 0.0 0.00 1.32 0.00 86 1014.1
20260508073040 13 0 0.0 1.6 0.00 1.32 0.00 86 1013.7
20260508071552 13 0 0.0 3.2 0.00 1.32 0.00 86 1013.7
20260508070044 13 0 0.0 3.2 0.00 1.32 0.00 85 1013.6
20260508064543 14 344 0.0 4.8 0.00 1.32 0.00 85 1013.6
20260508063041 14 350 0.0 4.8 0.00 1.32 0.00 84 1014.0
20260508061540 15 0 0.0 3.2 0.00 1.32 0.00 84 1014.0
20260508060040 15 0 0.0 6.4 0.00 1.32 0.00 83 1013.9
20260508054537 15 0 0.0 6.4 0.00 1.32 0.00 83 1014.0
20260508053109 15 346 0.0 4.8 0.00 1.32 0.00 82 1013.9
20260508051545 15 329 0.0 1.6 0.00 1.32 0.00 81 1014.0
20260508050042 16 345 1.6 8.0 0.00 1.32 0.00 80 1013.8
20260508044540 16 355 3.2 14.5 0.00 1.80 0.00 78 1013.6
20260508043037 16 331 3.2 12.9 0.00 1.80 0.00 78 1013.3
20260508041610 16 336 6.4 16.1 0.00 1.80 0.00 79 1013.3
20260508040104 17 304 4.8 12.9 0.00 1.80 0.00 80 1013.3
20260508034541 17 355 3.2 16.1 0.00 2.34 1.80 79 1013.3
20260508033040 17 320 4.8 14.5 0.00 2.34 1.80 80 1013.1
20260508031546 17 355 6.4 20.9 0.00 2.34 1.80 80 1012.7
20260508030044 18 5 4.8 16.1 0.00 2.34 1.80 79 1012.6
20260508024546 20 333 4.8 14.5 0.00 2.34 1.80 80 1012.2
20260508023041 20 0 0.0 0.0 0.00 2.34 1.80 84 1011.3